CW4279 Weather Reports


Display with metric or nautical units.
time (UTC)temp
F
wind
direction
speed
MPH
gust
MPH
rain 1hr
in
rain 24hr
in
rain mn
in
humidity
%
barometer
mb
20260508074841 35 137 0.0 0.0 0.00 0.00 0.00 74 1005.9
20260508074337 35 137 0.0 1.0 0.00 0.00 0.00 76 1005.9
20260508073834 34 137 0.0 0.0 0.00 0.00 0.00 78 1005.8
20260508073332 34 137 1.0 1.0 0.00 0.00 0.00 81 1006.2
20260508072828 33 136 0.0 0.0 0.00 0.00 0.00 79 1006.0
20260508072325 33 136 0.0 0.0 0.00 0.00 0.00 80 1005.9
20260508071822 33 136 0.0 0.0 0.00 0.00 0.00 81 1006.2
20260508071321 32 136 0.0 0.0 0.00 0.00 0.00 81 1006.1
20260508070818 32 136 0.0 0.0 0.00 0.00 0.00 80 1006.2
20260508070316 33 136 0.0 0.0 0.00 0.00 0.00 80 1006.2
20260508065813 33 136 0.0 0.0 0.00 0.00 0.00 80 1006.1
20260508065311 33 136 0.0 0.0 0.00 0.00 0.00 80 1006.4
20260508064809 33 136 0.0 0.0 0.00 0.00 0.00 79 1006.2
20260508064306 34 136 0.0 0.0 0.00 0.00 0.00 79 1006.2
20260508063804 34 136 0.0 0.0 0.00 0.00 0.00 78 1006.4
20260508063302 34 136 0.0 0.0 0.00 0.00 0.00 77 1006.3
20260508062759 35 136 1.0 1.0 0.00 0.00 0.00 78 1006.3
20260508062256 35 136 0.0 1.0 0.00 0.00 0.00 76 1006.3
20260508061753 35 136 0.0 1.0 0.00 0.00 0.00 76 1006.3
20260508061250 36 136 0.0 0.0 0.00 0.00 0.00 76 1006.4
20260508060746 36 136 0.0 0.0 0.00 0.00 0.00 72 1006.5
20260508060245 37 136 0.0 0.0 0.00 0.00 0.00 68 1006.5
20260508055739 37 136 0.0 0.0 0.00 0.00 0.00 67 1006.4
20260508055237 37 136 0.0 0.0 0.00 0.00 0.00 65 1006.4
20260508054733 37 136 0.0 0.0 0.00 0.00 0.00 64 1006.3
20260508054231 37 136 0.0 0.0 0.00 0.00 0.00 64 1006.3
20260508053728 38 137 0.0 0.0 0.00 0.00 0.00 66 1006.4
20260508053225 38 137 0.0 0.0 0.00 0.00 0.00 65 1006.5
20260508052722 39 137 0.0 0.0 0.00 0.00 0.00 64 1006.4
20260508052219 39 137 0.0 0.0 0.00 0.00 0.00 65 1006.7
20260508051716 39 137 0.0 0.0 0.00 0.00 0.00 61 1006.4
20260508051211 40 137 0.0 0.0 0.00 0.00 0.00 60 1006.4
20260508050708 40 137 0.0 0.0 0.00 0.00 0.00 59 1006.4
20260508050206 41 137 0.0 0.0 0.00 0.00 0.00 57 1006.6
20260508045700 42 137 0.0 0.0 0.00 0.00 0.00 56 1006.7
20260508045159 42 137 0.0 0.0 0.00 0.00 0.00 55 1006.6
20260508044656 42 137 0.0 0.0 0.00 0.00 0.00 55 1006.8
20260508044152 42 137 0.0 0.0 0.00 0.00 0.00 55 1006.6
20260508043648 43 137 0.0 0.0 0.00 0.00 0.00 54 1006.5
20260508043146 43 137 0.0 0.0 0.00 0.00 0.00 54 1006.8
20260508042642 43 137 0.0 0.0 0.00 0.00 0.00 54 1006.7
20260508042140 42 137 0.0 0.0 0.00 0.00 0.00 55 1006.6
20260508041636 42 137 0.0 0.0 0.00 0.00 0.00 55 1006.7
20260508041133 43 137 0.0 0.0 0.00 0.00 0.00 53 1006.9
20260508040629 43 137 0.0 0.0 0.00 0.00 0.00 53 1006.8
20260508040127 43 137 0.0 0.0 0.00 0.00 0.00 53 1006.8
20260508035624 42 137 0.0 0.0 0.00 0.00 0.00 54 1006.8
20260508035122 42 137 0.0 0.0 0.00 0.00 0.00 55 1007.0
20260508034618 43 137 0.0 0.0 0.00 0.00 0.00 52 1006.8
20260508034115 44 137 0.0 0.0 0.00 0.00 0.00 51 1006.8
20260508033613 44 137 0.0 0.0 0.00 0.00 0.00 50 1006.9
20260508033111 44 137 0.0 0.0 0.00 0.00 0.00 50 1007.2
20260508032607 44 137 0.0 0.0 0.00 0.00 0.00 50 1006.9
20260508032105 44 137 0.0 0.0 0.00 0.00 0.00 50 1006.9
20260508031602 44 137 0.0 0.0 0.00 0.00 0.00 50 1006.9
20260508031057 45 137 0.0 1.0 0.00 0.00 0.00 49 1006.9
20260508030554 45 137 0.0 0.0 0.00 0.00 0.00 48 1006.9
20260508030052 45 137 0.0 0.0 0.00 0.00 0.00 48 1006.9
20260508025548 45 137 0.0 0.0 0.00 0.00 0.00 48 1006.9
20260508025045 45 137 0.0 0.0 0.00 0.00 0.00 47 1007.0
20260508024541 45 137 0.0 0.0 0.00 0.00 0.00 47 1006.7
20260508024038 45 137 0.0 0.0 0.00 0.00 0.00 46 1006.6
20260508023534 45 137 0.0 0.0 0.00 0.00 0.00 48 1006.9
20260508023032 45 137 0.0 0.0 0.00 0.00 0.00 47 1007.2
20260508022528 46 137 0.0 0.0 0.00 0.00 0.00 46 1006.8
20260508022025 46 137 0.0 0.0 0.00 0.00 0.00 46 1007.0
20260508021521 47 137 0.0 0.0 0.00 0.00 0.00 45 1006.9
20260508021017 48 137 0.0 0.0 0.00 0.00 0.00 43 1006.7
20260508020515 48 137 0.0 1.0 0.00 0.00 0.00 42 1006.9
20260508020012 49 137 0.0 1.0 0.00 0.00 0.00 42 1006.9
20260508015509 49 137 0.0 0.0 0.00 0.00 0.00 41 1006.6
20260508015006 49 137 0.0 1.0 0.00 0.00 0.00 41 1006.8
20260508014503 49 137 0.0 0.0 0.00 0.00 0.00 41 1006.5
20260508013959 50 137 0.0 0.0 0.00 0.00 0.00 42 1006.7
20260508013455 50 137 0.0 0.0 0.00 0.00 0.00 40 1006.6
20260508012952 51 137 0.0 0.0 0.00 0.00 0.00 39 1006.6
20260508012449 51 137 0.0 0.0 0.00 0.00 0.00 39 1006.5
20260508011947 51 156 1.0 1.0 0.00 0.00 0.00 38 1006.5
20260508011445 52 121 0.0 1.0 0.00 0.00 0.00 38 1006.5
20260508010942 52 128 1.0 1.0 0.00 0.00 0.00 38 1006.5
20260508010439 53 146 0.0 1.0 0.00 0.00 0.00 37 1006.4
20260508005936 53 126 0.0 1.0 0.00 0.00 0.00 37 1006.5
20260508005432 54 148 1.0 1.0 0.00 0.00 0.00 36 1006.2
20260508004929 54 137 1.0 2.0 0.00 0.00 0.00 36 1006.4
20260508004425 54 127 0.0 2.0 0.00 0.00 0.00 35 1006.5
20260508003922 54 113 0.0 0.0 0.00 0.00 0.00 37 1006.3
20260508003419 55 133 0.0 1.0 0.00 0.00 0.00 36 1006.3
20260508002916 55 108 2.0 3.0 0.00 0.00 0.00 34 1006.7
20260508002407 55 196 1.0 1.0 0.00 0.00 0.00 33 1006.5
20260508001903 56 118 2.0 3.0 0.00 0.00 0.00 33 1006.4
20260508001359 56 151 1.0 2.0 0.00 0.00 0.00 33 1006.3
20260508000856 56 157 1.0 2.0 0.00 0.00 0.00 33 1006.6
20260508000352 55 108 1.0 3.0 0.00 0.00 0.00 33 1006.6
20260507235848 56 260 2.0 3.0 0.00 0.00 0.00 32 1006.6
20260507235346 56 146 1.0 3.0 0.00 0.00 0.00 32 1006.7
20260507234843 56 113 2.0 7.0 0.00 0.00 0.00 32 1006.6
20260507234340 56 30 3.0 5.0 0.00 0.00 0.00 31 1006.7
20260507233836 55 241 2.0 5.0 0.00 0.00 0.00 32 1006.7
20260507233334 56 205 4.0 5.0 0.00 0.00 0.00 31 1006.7
20260507232832 56 168 4.0 7.0 0.00 0.00 0.00 30 1006.7
20260507232328 57 77 2.0 7.0 0.00 0.00 0.00 30 1006.7
20260507231826 57 148 0.0 6.0 0.00 0.00 0.00 32 1006.6
20260507231322 57 314 2.0 6.0 0.00 0.00 0.00 31 1006.8
20260507230818 57 43 3.0 6.0 0.00 0.00 0.00 31 1006.8
20260507230316 57 194 2.0 3.0 0.00 0.00 0.00 30 1006.8
20260507225816 57 265 3.0 3.0 0.00 0.00 0.00 30 1006.9
20260507225312 59 62 3.0 3.0 0.00 0.00 0.00 28 1006.9
20260507224808 58 317 2.0 3.0 0.00 0.00 0.00 29 1006.9
20260507224305 57 345 3.0 6.0 0.00 0.00 0.00 30 1006.8
20260507223801 58 294 2.0 7.0 0.00 0.00 0.00 29 1007.0
20260507223257 57 128 2.0 6.0 0.00 0.00 0.00 30 1006.8
20260507222754 58 174 1.0 6.0 0.00 0.00 0.00 31 1007.0
20260507222250 56 274 3.0 3.0 0.00 0.00 0.00 30 1006.8
20260507221748 57 230 3.0 6.0 0.00 0.00 0.00 29 1007.3
20260507221244 56 105 0.0 3.0 0.00 0.00 0.00 30 1007.1
20260507220740 57 86 2.0 8.0 0.00 0.00 0.00 30 1006.9
20260507220239 58 90 2.0 3.0 0.00 0.00 0.00 29 1007.1
20260507215734 58 303 4.0 5.0 0.00 0.00 0.00 30 1007.1
20260507215233 58 170 2.0 3.0 0.00 0.00 0.00 30 1007.3
20260507214729 57 249 2.0 5.0 0.00 0.00 0.00 27 1007.3
20260507214227 56 58 2.0 6.0 0.00 0.00 0.00 30 1007.3
20260507213722 56 174 3.0 7.0 0.00 0.00 0.00 29 1007.1
20260507213219 57 180 3.0 6.0 0.00 0.00 0.00 30 1007.2
20260507212715 59 75 4.0 6.0 0.00 0.00 0.00 28 1007.3
20260507212212 57 163 3.0 8.0 0.00 0.00 0.00 29 1007.2
20260507211709 59 130 2.0 5.0 0.00 0.00 0.00 28 1007.2
20260507211204 58 178 2.0 3.0 0.00 0.00 0.00 29 1007.2
20260507210702 59 59 4.0 10.0 0.00 0.00 0.00 27 1007.5
20260507210159 57 137 0.0 6.0 0.00 0.00 0.00 30 1007.4
20260507205655 59 57 5.0 7.0 0.00 0.00 0.00 27 1007.4
20260507205152 60 137 3.0 5.0 0.00 0.00 0.00 28 1007.4
20260507204648 60 103 2.0 2.0 0.00 0.00 0.00 27 1007.4
20260507204146 60 71 3.0 7.0 0.00 0.00 0.00 27 1007.4
20260507203644 59 205 3.0 5.0 0.00 0.00 0.00 27 1007.7
20260507203141 60 158 1.0 6.0 0.00 0.00 0.00 29 1007.9
20260507202636 58 154 2.0 6.0 0.00 0.00 0.00 29 1007.8
20260507202133 59 334 2.0 5.0 0.00 0.00 0.00 27 1007.8
20260507201628 57 115 2.0 3.0 0.00 0.00 0.00 29 1007.9
20260507201125 56 180 1.0 2.0 0.00 0.00 0.00 31 1007.9
20260507200621 58 264 3.0 8.0 0.00 0.00 0.00 29 1008.1
20260507200117 58 333 5.0 8.0 0.00 0.00 0.00 28 1008.0
20260507195614 58 118 0.0 3.0 0.00 0.00 0.00 28 1008.2
20260507195112 57 112 1.0 3.0 0.00 0.00 0.00 29 1008.4
20260507194608 57 32 3.0 5.0 0.00 0.00 0.00 30 1008.2
20260507194103 58 70 3.0 6.0 0.00 0.00 0.00 27 1008.5
20260507193601 57 54 2.0 10.0 0.00 0.00 0.00 30 1008.4
20260507193058 57 315 2.0 8.0 0.00 0.00 0.00 31 1008.5
20260507192554 57 178 2.0 6.0 0.00 0.00 0.00 32 1008.6
20260507192051 55 158 2.0 2.0 0.00 0.00 0.00 31 1008.3
20260507191546 55 100 0.0 2.0 0.00 0.00 0.00 31 1008.7
20260507191044 56 256 2.0 3.0 0.00 0.00 0.00 30 1008.6
20260507190541 55 239 2.0 6.0 0.00 0.00 0.00 34 1008.9
20260507190040 53 110 2.0 3.0 0.00 0.00 0.00 34 1008.7
20260507185538 55 76 1.0 2.0 0.00 0.00 0.00 30 1008.6
20260507185034 54 132 1.0 2.0 0.00 0.00 0.00 32 1008.6
20260507184532 55 194 1.0 3.0 0.00 0.00 0.00 31 1008.6
20260507184030 54 117 0.0 2.0 0.00 0.00 0.00 32 1008.9
20260507183525 54 115 3.0 7.0 0.00 0.00 0.00 31 1008.6
20260507183023 52 98 1.0 2.0 0.00 0.00 0.00 33 1008.9
20260507182519 54 196 1.0 2.0 0.00 0.00 0.00 30 1009.1
20260507182015 55 149 1.0 6.0 0.00 0.00 0.00 29 1009.1
20260507181512 57 272 8.0 13.0 0.00 0.00 0.00 29 1009.0
20260507181008 57 237 2.0 3.0 0.00 0.00 0.00 30 1009.1
20260507180504 55 323 4.0 6.0 0.00 0.00 0.00 30 1008.9
20260507180001 56 130 3.0 6.0 0.00 0.00 0.00 28 1009.2
20260507175458 56 174 1.0 2.0 0.00 0.00 0.00 30 1009.3
20260507174955 57 143 1.0 6.0 0.00 0.00 0.00 28 1009.5
20260507174452 56 20 4.0 7.0 0.00 0.00 0.00 30 1009.4
20260507173950 54 190 4.0 6.0 0.00 0.00 0.00 31 1009.4
20260507173447 53 167 0.0 2.0 0.00 0.00 0.00 35 1009.4
20260507172943 52 147 2.0 2.0 0.00 0.00 0.00 31 1009.5
20260507172440 54 76 5.0 7.0 0.00 0.00 0.00 30 1009.6
20260507171937 52 123 0.0 8.0 0.00 0.00 0.00 34 1009.5
20260507171432 53 203 2.0 5.0 0.00 0.00 0.00 32 1009.7
20260507170930 53 109 0.0 2.0 0.00 0.00 0.00 32 1009.7
20260507170426 53 115 1.0 7.0 0.00 0.00 0.00 32 1009.6
20260507165923 53 347 1.0 5.0 0.00 0.00 0.00 30 1009.7
20260507165419 53 81 2.0 6.0 0.00 0.00 0.00 31 1010.0
20260507164914 53 293 3.0 6.0 0.00 0.00 0.00 30 1009.9
20260507164412 52 102 1.0 3.0 0.00 0.00 0.00 33 1009.8
20260507163909 51 318 2.0 5.0 0.00 0.00 0.00 33 1009.8
20260507163407 52 203 1.0 3.0 0.00 0.00 0.00 33 1009.9
20260507162903 53 155 2.0 7.0 0.00 0.00 0.00 32 1009.9
20260507162358 52 118 1.0 5.0 0.00 0.00 0.00 33 1010.0
20260507161855 51 262 2.0 3.0 0.00 0.00 0.00 35 1010.1
20260507161352 50 132 1.0 1.0 0.00 0.00 0.00 36 1010.2
20260507160849 49 273 4.0 6.0 0.00 0.00 0.00 37 1010.1
20260507160344 52 113 1.0 5.0 0.00 0.00 0.00 35 1010.1
20260507155841 51 193 1.0 3.0 0.00 0.00 0.00 36 1010.1
20260507155336 51 325 2.0 3.0 0.00 0.00 0.00 37 1010.2
20260507154833 51 30 2.0 7.0 0.00 0.00 0.00 37 1010.4
20260507154331 51 216 1.0 7.0 0.00 0.00 0.00 38 1010.1
20260507153828 50 127 0.0 3.0 0.00 0.00 0.00 36 1009.8
20260507153324 49 312 3.0 3.0 0.00 0.00 0.00 39 1010.3
20260507152821 50 214 4.0 5.0 0.00 0.00 0.00 37 1010.2
20260507152317 50 89 3.0 3.0 0.00 0.00 0.00 39 1010.2
20260507151813 50 103 1.0 3.0 0.00 0.00 0.00 38 1010.3
20260507151309 49 153 0.0 5.0 0.00 0.00 0.00 40 1010.2
20260507150807 49 101 1.0 5.0 0.00 0.00 0.00 39 1010.3
20260507150303 49 101 1.0 2.0 0.00 0.00 0.00 40 1010.1
20260507145759 50 168 1.0 3.0 0.00 0.00 0.00 41 1010.3
20260507145256 49 166 1.0 3.0 0.00 0.00 0.00 42 1010.3
20260507144753 48 172 3.0 5.0 0.00 0.00 0.00 42 1010.1
20260507144250 48 146 0.0 2.0 0.00 0.00 0.00 45 1010.2
20260507143747 48 55 3.0 3.0 0.00 0.00 0.00 43 1010.4
20260507143244 48 147 0.0 2.0 0.00 0.00 0.00 44 1010.3
20260507142740 47 188 3.0 3.0 0.00 0.00 0.00 44 1010.6
20260507142237 46 107 2.0 5.0 0.00 0.00 0.00 46 1010.7
20260507141733 47 107 1.0 3.0 0.00 0.00 0.00 43 1010.6
20260507141230 45 122 1.0 2.0 0.00 0.00 0.00 47 1010.5
20260507140726 45 110 0.0 3.0 0.00 0.00 0.00 50 1010.6
20260507140224 45 41 3.0 5.0 0.00 0.00 0.00 50 1010.9
20260507135721 44 101 1.0 2.0 0.00 0.00 0.00 54 1010.8
20260507135218 44 157 1.0 2.0 0.00 0.00 0.00 52 1010.8
20260507134714 44 234 3.0 5.0 0.00 0.00 0.00 53 1010.7
20260507134210 44 54 2.0 2.0 0.00 0.00 0.00 53 1010.8
20260507133707 43 91 2.0 3.0 0.00 0.00 0.00 54 1010.9
20260507133204 43 117 0.0 1.0 0.00 0.00 0.00 58 1010.9
20260507132701 42 219 2.0 2.0 0.00 0.00 0.00 58 1010.8
20260507132157 42 174 2.0 3.0 0.00 0.00 0.00 59 1010.7
20260507131654 42 107 0.0 3.0 0.00 0.00 0.00 59 1010.9
20260507131152 41 350 3.0 3.0 0.00 0.00 0.00 61 1010.9
20260507130648 41 140 0.0 1.0 0.00 0.00 0.00 65 1011.0
20260507130146 40 142 0.0 1.0 0.00 0.00 0.00 67 1010.9
20260507125645 40 144 0.0 1.0 0.00 0.00 0.00 68 1010.6
20260507125142 39 145 0.0 1.0 0.00 0.00 0.00 67 1010.8
20260507124638 38 146 0.0 1.0 0.00 0.00 0.00 70 1010.9
20260507124136 38 146 0.0 0.0 0.00 0.00 0.00 70 1010.7
20260507123634 38 146 0.0 0.0 0.00 0.00 0.00 71 1011.0
20260507123131 38 146 0.0 0.0 0.00 0.00 0.00 72 1011.0
20260507122626 38 146 0.0 1.0 0.00 0.00 0.00 72 1010.8
20260507122122 38 146 0.0 0.0 0.00 0.00 0.00 72 1011.1
20260507121618 37 146 0.0 1.0 0.00 0.00 0.00 73 1011.0
20260507121114 37 146 0.0 0.0 0.00 0.00 0.00 73 1010.9
20260507120610 37 146 0.0 0.0 0.00 0.00 0.00 76 1011.2
20260507120107 36 146 0.0 0.0 0.00 0.00 0.00 77 1011.1
20260507115603 36 146 0.0 0.0 0.00 0.00 0.00 79 1010.8
20260507115059 36 146 0.0 0.0 0.00 0.00 0.00 80 1010.8
20260507114555 35 146 0.0 0.0 0.00 0.00 0.00 80 1011.1
20260507114053 35 146 0.0 0.0 0.00 0.00 0.00 79 1010.8
20260507113549 35 146 0.0 0.0 0.00 0.00 0.00 79 1010.7
20260507113047 35 146 0.0 0.0 0.00 0.00 0.00 77 1011.0
20260507112545 35 146 0.0 0.0 0.00 0.00 0.00 76 1011.0
20260507112041 35 147 0.0 0.0 0.00 0.00 0.00 74 1010.8
20260507111538 35 147 0.0 0.0 0.00 0.00 0.00 75 1011.0
20260507111035 35 147 0.0 0.0 0.00 0.00 0.00 74 1011.0
20260507110531 35 147 0.0 0.0 0.00 0.00 0.00 75 1010.7
20260507110027 35 147 0.0 1.0 0.00 0.00 0.00 75 1010.9
20260507105525 35 147 0.0 1.0 0.00 0.00 0.00 75 1010.8
20260507105020 35 147 0.0 1.0 0.00 0.00 0.00 75 1010.7
20260507104518 35 147 0.0 1.0 0.00 0.00 0.00 76 1010.8
20260507104015 35 147 0.0 0.0 0.00 0.00 0.00 76 1010.7
20260507103511 35 147 0.0 0.0 0.00 0.00 0.00 75 1010.9
20260507103007 35 147 0.0 0.0 0.00 0.00 0.00 75 1011.0
20260507102504 35 147 0.0 1.0 0.00 0.00 0.00 74 1010.9
20260507102000 36 147 0.0 0.0 0.00 0.00 0.00 75 1010.9
20260507101455 36 147 0.0 1.0 0.00 0.00 0.00 72 1010.9
20260507100953 36 149 0.0 1.0 0.00 0.00 0.00 72 1010.9
20260507100450 37 149 0.0 0.0 0.00 0.00 0.00 72 1010.7
20260507095948 37 149 0.0 0.0 0.00 0.00 0.00 72 1011.0
20260507095445 37 149 1.0 1.0 0.00 0.00 0.00 70 1011.1
20260507094942 37 149 0.0 1.0 0.00 0.00 0.00 71 1011.1
20260507094438 37 149 0.0 1.0 0.00 0.00 0.00 70 1011.1
20260507093935 36 145 0.0 0.0 0.00 0.00 0.00 72 1011.0
20260507093433 36 145 0.0 0.0 0.00 0.00 0.00 72 1011.0
20260507092931 36 145 0.0 1.0 0.00 0.00 0.00 72 1011.1
20260507092427 36 145 0.0 1.0 0.00 0.00 0.00 73 1011.0
20260507091924 36 145 0.0 0.0 0.00 0.00 0.00 74 1011.1
20260507091420 36 145 0.0 1.0 0.00 0.00 0.00 75 1011.0
20260507090916 36 145 0.0 1.0 0.00 0.00 0.00 75 1011.0
20260507090412 36 144 0.0 1.0 0.00 0.00 0.00 75 1010.7
20260507085909 36 144 0.0 0.0 0.00 0.00 0.00 76 1010.8
20260507085406 36 144 0.0 0.0 0.00 0.00 0.00 76 1010.7
20260507084904 36 144 0.0 0.0 0.00 0.00 0.00 76 1010.9
20260507084400 36 144 0.0 0.0 0.00 0.00 0.00 76 1010.9
20260507083857 36 144 0.0 0.0 0.00 0.00 0.00 76 1010.7
20260507083353 36 144 0.0 0.0 0.00 0.00 0.00 75 1010.7
20260507082850 36 144 0.0 1.0 0.00 0.00 0.00 74 1011.0
20260507082345 36 144 0.0 0.0 0.00 0.00 0.00 74 1010.9
20260507081843 36 144 0.0 0.0 0.00 0.00 0.00 75 1010.9
20260507081339 36 144 0.0 0.0 0.00 0.00 0.00 75 1010.8
20260507080836 36 144 0.0 0.0 0.00 0.00 0.00 75 1010.5
20260507080332 36 144 0.0 0.0 0.00 0.00 0.00 76 1010.7
20260507075828 36 144 0.0 0.0 0.00 0.00 0.00 77 1010.6
20260507075324 36 144 0.0 0.0 0.00 0.00 0.00 76 1010.7